Weather Roundup
Issued by NWS

Home | Current Version | Previous Version | Text Only | Print | Product List | Glossary On
Versions: 1 2 3 4 5 6 7 8 9 10 11 12 13 14 15 16 17 18 19 20 21 22 23 24 25 26 27 28 29 30 31 32 33 34 35 36 37 38 39 40 41 42 43 44 45 46 47 48 49 50
000
NZUS93 KARX 280810
HRRWXR

CURRENT HOURLY OBSERVATIONS ACROSS
MUCH OF THE UPPER MISSISSIPPI VALLEY
NATIONAL WEATHER SERVICE LA CROSSE WI
300 AM CDT TUE APR 28 2015


...SOUTHEAST MINNESOTA...


CITY           SKY/WX    TMP DP  RH WIND       PRES   REMARKS
ROCHESTER      CLEAR     46  28  49 NW6       30.16S
ROCHESTER/MAYO FAIR      50  32  49 CALM      30.15S
WINONA         CLEAR     41  36  81 CALM      30.15S
AUSTIN         CLEAR     39  34  81 CALM      30.16R
ALBERT LEA     CLEAR     43  32  65 CALM      30.16S
DODGE CENTER   PTCLDY    46  28  49 CALM      30.16S
PRESTON        FAIR      49  28  44 N3        30.15S
OWATONNA       PTCLDY    37  28  70 CALM      30.16S
FARIBAULT      PTCLDY    39  34  81 CALM      30.16S
$$

...ELSEWHERE IN MINNESOTA...


CITY           SKY/WX    TMP DP  RH WIND       PRES   REMARKS
MINNEAPOLIS    MOCLDY    46  38  73 SE6       30.15S
INTNL FALLS    LGT RAIN  49  44  83 N13       30.17S
DULUTH         CLEAR     44  27  51 CALM      30.14S
RED WING       CLEAR     39  30  70 CALM      30.15S
REDWOOD FALLS  CLEAR     45  27  49 W10       30.17S
MANKATO        NOT AVBL
WORTHINGTON    CLEAR     45  21  39 W5        30.19S
FAIRMONT       PTCLDY    45  27  49 W7        30.16F
$$

...SOUTHWEST WISCONSIN...


CITY           SKY/WX    TMP DP  RH WIND       PRES   REMARKS
LA CROSSE      CLEAR     44  40  85 CALM      30.14R
PRAIRIE DU CHI CLEAR     42  36  80 CALM      30.13S
BOSCOBEL       CLEAR     38  34  85 NE5       30.14R WCI  34
LONE ROCK      CLEAR     42  36  79 E8        30.15R
PLATTEVILLE    CLEAR     42  35  78 E10       30.12R
FORT MC COY    CLEAR     32  29  87 CALM      30.15S
CAMP DOUGLAS   CLEAR     35  35 100 E5        30.15S WCI  31
VIROQUA        FAIR      48  30  49 NE5       30.13S
WIS DELLS      CLEAR     37  32  81 E3        30.15S
$$

...ELSEWHERE IN WISCONSIN...


CITY           SKY/WX    TMP DP  RH WIND       PRES   REMARKS
MILWAUKEE      CLEAR     42  32  67 N12       30.14S
MADISON        CLEAR     37  32  82 CALM      30.15S
GREEN BAY      CLEAR     38  33  82 N6        30.16S WCI  33
EAU CLAIRE     CLEAR     39  28  64 CALM      30.14S
BLACK RVR FLS  FAIR      33  29  88 E3        30.15R
MEDFORD        CLEAR     40  28  63 E5        30.15S
WAUSAU         CLEAR     40  34  79 CALM      30.15S
WIS RAPIDS     CLEAR     36  31  82 CALM      30.17S
MARSHFIELD     CLEAR     41  34  76 SE5       30.16R
RICE LAKE      PTCLDY    36  33  86 CALM      30.17S
$$

...NORTHEAST IOWA...


CITY           SKY/WX    TMP DP  RH WIND       PRES   REMARKS
DECORAH        CLEAR     45  34  65 CALM      30.13S
MASON CITY     CLEAR     39  31  72 W6        30.17F WCI  35
CHARLES CITY   CLEAR     43  36  75 W6        30.15F
OELWEIN        CLEAR     45  36  70 NW6       30.14S
$$

...ELSEWHERE IN IOWA...


CITY           SKY/WX    TMP DP  RH WIND       PRES   REMARKS
DES MOINES     PTCLDY    46  39  76 NW3       30.16S
IOWA CITY      CLEAR     44  36  73 W5        30.14S
FORT DODGE     CLEAR     39  34  81 CALM      30.18S
$$

...NORTHERN ILLINOIS...


CITY           SKY/WX    TMP DP  RH WIND       PRES   REMARKS
CHICAGO-OHARE  CLEAR     37  33  85 CALM      30.13S
CHICAGO-MIDWAY CLEAR     41  34  76 NW5       30.14R
MOLINE         CLEAR     39  34  82 CALM      30.12S
ROCKFORD       CLEAR     40  33  76 CALM      30.16F
PEORIA         CLEAR     42  35  76 CALM      30.13S
$$

NOTE: "FAIR" INDICATES FEW OR NO CLOUDS BELOW 12,000 FEET WITH NO
SIGNIFICANT WEATHER AND/OR OBSTRUCTIONS TO VISIBILITY. WIND
SPEEDS ARE IN MILES-PER-HOUR.



USA.gov is the U.S. government's official web portal to all federal, state and local government web resources and services.